TAP28L LZIB-LPPT

Flight info

Callsign TAP28L
Flight time 3h 24m
Altitude 34000
Route TOVKA DCT LIMRA DCT DETSA/N0453F350 DCT ABREG DCT INCUS DCT BELUS/N0452F340 DCT LSE/N0453F350 UY305 ESIDA DCT FISTO DCT URUNA P181 NEA N976 ARDID DCT INBOM
Aircraft A320/M-SDE3FGHIRWY/LB1

Departure

Time 2026-04-28 07:42
Airport M. R. Štefánik Airport (LZIB)

Arrival

Time 2026-04-28 11:06
Airport Lisbon Humberto Delgado Airport (LPPT)
Time Latitude Longitude Altitude Speed Heading
2026-04-28 07:26 48.16889 17.20062 433 ft 0 kts 314°
2026-04-28 07:33 48.16878 17.20079 440 ft 2 kts 314°
2026-04-28 07:33 48.16866 17.20097 430 ft 2 kts 314°
2026-04-28 07:34 48.16853 17.20112 432 ft 2 kts
2026-04-28 07:34 48.16845 17.20110 430 ft 0 kts 44°
2026-04-28 07:37 48.16856 17.20131 427 ft 7 kts 58°
2026-04-28 07:37 48.16841 17.20170 430 ft 4 kts 135°
2026-04-28 07:38 48.16824 17.20196 437 ft 6 kts 134°
2026-04-28 07:38 48.16786 17.20255 433 ft 7 kts 134°
2026-04-28 07:38 48.16756 17.20303 435 ft 5 kts 134°
2026-04-28 07:38 48.16732 17.20339 436 ft 5 kts 134°
2026-04-28 07:39 48.16705 17.20358 432 ft 4 kts 200°
2026-04-28 07:39 48.16632 17.20271 427 ft 19 kts 220°
2026-04-28 07:39 48.16540 17.20155 432 ft 16 kts 220°
2026-04-28 07:39 48.16465 17.20056 441 ft 13 kts 221°
2026-04-28 07:40 48.16438 17.20020 436 ft 0 kts 221°
2026-04-28 07:40 48.16411 17.20038 432 ft 7 kts 136°
2026-04-28 07:40 48.16383 17.20088 435 ft 6 kts 130°
2026-04-28 07:40 48.16343 17.20153 437 ft 11 kts 134°
2026-04-28 07:41 48.16292 17.20229 436 ft 7 kts 126°
2026-04-28 07:41 48.16293 17.20244 439 ft 0 kts 62°
2026-04-28 07:41 48.16296 17.20247 436 ft 0 kts 45°
2026-04-28 07:41 48.16392 17.20389 435 ft 53 kts 44°
2026-04-28 07:42 48.16821 17.21004 438 ft 115 kts 44°
2026-04-28 07:42 48.17522 17.22008 441 ft 162 kts 44°
2026-04-28 07:42 48.18304 17.23170 1186 ft 148 kts 46°
2026-04-28 07:42 48.18993 17.24238 1943 ft 144 kts 48°
2026-04-28 07:43 48.19724 17.25358 2442 ft 155 kts 47°
2026-04-28 07:43 48.20515 17.26543 2881 ft 166 kts 46°
2026-04-28 07:43 48.21387 17.27794 3256 ft 180 kts 44°
2026-04-28 07:43 48.22391 17.28976 3587 ft 195 kts 26°
2026-04-28 07:44 48.23781 17.29343 3917 ft 215 kts 350°
2026-04-28 07:44 48.25102 17.28296 4537 ft 221 kts 311°
2026-04-28 07:44 48.25762 17.26218 5193 ft 226 kts 278°
2026-04-28 07:44 48.25588 17.23887 5868 ft 228 kts 247°
2026-04-28 07:45 48.24798 17.21809 6597 ft 229 kts 239°
2026-04-28 07:45 48.23970 17.19804 7349 ft 228 kts 242°
2026-04-28 07:45 48.23213 17.17736 8069 ft 227 kts 244°
2026-04-28 07:45 48.22477 17.15645 8737 ft 227 kts 244°
2026-04-28 07:46 48.21760 17.13526 9406 ft 227 kts 251°
2026-04-28 07:46 48.21431 17.11210 10016 ft 228 kts 272°
2026-04-28 07:46 48.21650 17.08841 10333 ft 243 kts 290°
2026-04-28 07:46 48.22399 17.06447 10500 ft 265 kts 297°
2026-04-28 07:47 48.23274 17.03873 10676 ft 289 kts 297°
2026-04-28 07:47 48.24218 17.01072 10822 ft 312 kts 297°
2026-04-28 07:47 48.25225 16.98066 11018 ft 331 kts 297°
2026-04-28 07:47 48.26241 16.94928 11554 ft 337 kts 292°
2026-04-28 07:48 48.26722 16.91461 12154 ft 343 kts 272°
2026-04-28 07:48 48.26416 16.87922 12793 ft 348 kts 261°
2026-04-28 07:48 48.25929 16.84329 13485 ft 350 kts 261°
2026-04-28 07:48 48.25441 16.80768 14110 ft 353 kts 261°
2026-04-28 07:49 48.24943 16.77122 14668 ft 356 kts 261°
2026-04-28 07:49 48.24448 16.73468 15221 ft 359 kts 261°
2026-04-28 07:49 48.23949 16.69787 15767 ft 361 kts 261°
2026-04-28 07:49 48.23445 16.66073 16314 ft 364 kts 261°
2026-04-28 07:50 48.22941 16.62369 16839 ft 367 kts 261°
2026-04-28 07:50 48.22428 16.58608 17366 ft 369 kts 261°
2026-04-28 07:50 48.21909 16.54803 17883 ft 372 kts 261°
2026-04-28 07:50 48.21386 16.50970 18389 ft 375 kts 261°
2026-04-28 07:51 48.20865 16.47162 18844 ft 377 kts 261°
2026-04-28 07:51 48.20334 16.43292 19299 ft 379 kts 261°
2026-04-28 07:51 48.19797 16.39405 19771 ft 380 kts 261°
2026-04-28 07:51 48.19262 16.35553 20226 ft 382 kts 261°
2026-04-28 07:52 48.18718 16.31653 20677 ft 383 kts 261°
2026-04-28 07:52 48.18173 16.27737 21119 ft 384 kts 261°
2026-04-28 07:52 48.17626 16.23807 21539 ft 386 kts 261°
2026-04-28 07:52 48.17075 16.19855 21968 ft 387 kts 261°
2026-04-28 07:53 48.16520 16.15879 22397 ft 389 kts 261°
2026-04-28 07:53 48.15970 16.11953 22795 ft 390 kts 261°
2026-04-28 07:53 48.15408 16.07971 23250 ft 391 kts 261°
2026-04-28 07:53 48.14842 16.03971 23662 ft 392 kts 261°
2026-04-28 07:54 48.14273 15.99956 24007 ft 394 kts 261°
2026-04-28 07:54 48.13709 15.95990 24334 ft 395 kts 261°
2026-04-28 07:54 48.13133 15.91949 24687 ft 396 kts 261°
2026-04-28 07:54 48.12555 15.87909 25027 ft 396 kts 261°
2026-04-28 07:55 48.11978 15.83877 25350 ft 397 kts 261°
2026-04-28 07:55 48.11396 15.79826 25698 ft 398 kts 261°
2026-04-28 07:55 48.10812 15.75772 26043 ft 399 kts 261°
2026-04-28 07:55 48.10231 15.71757 26378 ft 399 kts 261°
2026-04-28 07:56 48.09642 15.67685 26694 ft 401 kts 261°
2026-04-28 07:56 48.09050 15.63594 27007 ft 401 kts 261°
2026-04-28 07:56 48.08655 15.60874 27214 ft 402 kts 261°
2026-04-28 07:56 48.07865 15.55449 27617 ft 403 kts 261°
2026-04-28 07:57 48.07261 15.51341 27877 ft 404 kts 261°
2026-04-28 07:57 48.06858 15.48606 28073 ft 405 kts 261°
2026-04-28 07:57 48.06249 15.44499 28378 ft 405 kts 261°
2026-04-28 07:57 48.05641 15.40385 28659 ft 405 kts 261°
2026-04-28 07:58 48.05032 15.36258 28954 ft 405 kts 261°
2026-04-28 07:58 48.04429 15.32183 29210 ft 407 kts 261°
2026-04-28 07:58 48.03813 15.28039 29487 ft 407 kts 261°
2026-04-28 07:58 48.03198 15.23907 29847 ft 405 kts 261°
2026-04-28 07:59 48.02584 15.19798 30238 ft 404 kts 261°
2026-04-28 07:59 48.01980 15.15763 30550 ft 402 kts 261°
2026-04-28 07:59 48.01367 15.11681 30854 ft 400 kts 261°
2026-04-28 07:59 48.00759 15.07620 31163 ft 399 kts 261°
2026-04-28 08:00 48.00150 15.03573 31451 ft 398 kts 261°
2026-04-28 08:00 47.99549 14.99593 31732 ft 396 kts 261°
2026-04-28 08:00 47.98940 14.95576 32085 ft 394 kts 261°
2026-04-28 08:00 47.98332 14.91575 32424 ft 392 kts 262°
2026-04-28 08:01 47.97733 14.87654 32720 ft 391 kts 262°
2026-04-28 08:01 47.97128 14.83696 32991 ft 390 kts 262°
2026-04-28 08:01 47.96523 14.79750 33272 ft 389 kts 262°
2026-04-28 08:01 47.95920 14.75821 33567 ft 388 kts 262°
2026-04-28 08:02 47.95323 14.71951 33840 ft 387 kts 262°
2026-04-28 08:02 47.94718 14.68031 34086 ft 386 kts 262°
2026-04-28 08:02 47.93512 14.60236 34154 ft 385 kts 262°
2026-04-28 08:03 47.92295 14.52457 34139 ft 385 kts 262°
2026-04-28 08:03 47.90769 14.44781 34150 ft 393 kts 251°
2026-04-28 08:04 47.87713 14.37869 34147 ft 403 kts 241°
2026-04-28 08:04 47.84392 14.31172 34147 ft 404 kts 242°
2026-04-28 08:05 47.81071 14.24463 34124 ft 403 kts 241°
2026-04-28 08:05 47.77731 14.17726 34142 ft 404 kts 241°
2026-04-28 08:06 47.74399 14.11023 34102 ft 405 kts 241°
2026-04-28 08:06 47.71057 14.04316 34109 ft 405 kts 241°
2026-04-28 08:07 47.67692 13.97585 34092 ft 406 kts 240°
2026-04-28 08:07 47.64316 13.90841 34104 ft 406 kts 240°
2026-04-28 08:08 47.60964 13.84163 34112 ft 406 kts 240°
2026-04-28 08:08 47.57587 13.77455 34095 ft 405 kts 240°
2026-04-28 08:09 47.54234 13.70810 34104 ft 405 kts 240°
2026-04-28 08:09 47.50853 13.64125 34107 ft 405 kts 240°
2026-04-28 08:10 47.47487 13.57485 34111 ft 405 kts 240°
2026-04-28 08:10 47.44088 13.50788 34112 ft 405 kts 240°
2026-04-28 08:11 47.40705 13.44160 34088 ft 405 kts 239°
2026-04-28 08:11 47.37330 13.37557 34090 ft 405 kts 239°
2026-04-28 08:12 47.33931 13.30910 34103 ft 405 kts 239°
2026-04-28 08:12 47.30549 13.24302 34108 ft 404 kts 239°
2026-04-28 08:13 47.27143 13.17686 34111 ft 404 kts 239°
2026-04-28 08:13 47.23757 13.11123 34091 ft 405 kts 239°
2026-04-28 08:14 47.20351 13.04526 34086 ft 404 kts 239°
2026-04-28 08:14 47.16951 12.97956 34103 ft 406 kts 238°
2026-04-28 08:15 47.13507 12.91342 34106 ft 406 kts 238°
2026-04-28 08:15 47.10084 12.84778 34106 ft 406 kts 238°
2026-04-28 08:16 47.06645 12.78188 34104 ft 406 kts 238°
2026-04-28 08:16 47.03206 12.71595 34095 ft 406 kts 238°
2026-04-28 08:17 46.99780 12.65053 34100 ft 407 kts 238°
2026-04-28 08:17 46.96327 12.58488 34103 ft 406 kts 238°
2026-04-28 08:18 46.92850 12.51891 34127 ft 409 kts 238°
2026-04-28 08:18 46.89372 12.45318 34119 ft 409 kts 237°
2026-04-28 08:19 46.85906 12.38777 34126 ft 409 kts 237°
2026-04-28 08:19 46.82396 12.32169 34147 ft 410 kts 238°
2026-04-28 08:20 46.79773 12.24997 34162 ft 399 kts 255°
2026-04-28 08:20 46.78406 12.17167 34121 ft 397 kts 258°
2026-04-28 08:21 46.77088 12.09383 34121 ft 397 kts 259°
2026-04-28 08:21 46.75763 12.01596 34122 ft 397 kts 258°
2026-04-28 08:22 46.74429 11.93777 34101 ft 397 kts 258°
2026-04-28 08:22 46.73085 11.85981 34097 ft 398 kts 258°
2026-04-28 08:23 46.71729 11.78121 34099 ft 399 kts 258°
2026-04-28 08:23 46.70377 11.70313 34102 ft 399 kts 258°
2026-04-28 08:24 46.69005 11.62450 34097 ft 399 kts 258°
2026-04-28 08:24 46.67640 11.54649 34097 ft 400 kts 258°
2026-04-28 08:25 46.66263 11.46796 34093 ft 399 kts 258°
2026-04-28 08:26 46.64191 11.35058 34098 ft 400 kts 258°
2026-04-28 08:26 46.62805 11.27274 34100 ft 399 kts 258°
2026-04-28 08:27 46.61410 11.19440 34123 ft 400 kts 258°
2026-04-28 08:27 46.60004 11.11588 34122 ft 400 kts 257°
2026-04-28 08:28 46.58601 11.03797 34129 ft 401 kts 258°
2026-04-28 08:28 46.57186 10.95949 34133 ft 401 kts 257°
2026-04-28 08:29 46.55757 10.88097 34147 ft 401 kts 257°
2026-04-28 08:29 46.54323 10.80254 34152 ft 401 kts 257°
2026-04-28 08:30 46.52891 10.72431 34147 ft 401 kts 257°
2026-04-28 08:30 46.51454 10.64606 34151 ft 401 kts 257°
2026-04-28 08:31 46.50018 10.56816 34149 ft 401 kts 257°
2026-04-28 08:31 46.48569 10.48992 34148 ft 401 kts 257°
2026-04-28 08:32 46.47124 10.41206 34148 ft 402 kts 257°
2026-04-28 08:32 46.45655 10.33364 34153 ft 402 kts 257°
2026-04-28 08:33 46.44177 10.25539 34154 ft 402 kts 257°
2026-04-28 08:33 46.42709 10.17764 34152 ft 402 kts 257°
2026-04-28 08:34 46.41229 10.09926 34156 ft 402 kts 256°
2026-04-28 08:34 46.39738 10.02091 34175 ft 402 kts 256°
2026-04-28 08:35 46.38259 9.94324 34171 ft 401 kts 256°
2026-04-28 08:35 46.36769 9.86529 34164 ft 401 kts 256°
2026-04-28 08:36 46.35283 9.78785 34159 ft 401 kts 256°
2026-04-28 08:36 46.33783 9.71000 34153 ft 401 kts 256°
2026-04-28 08:37 46.32274 9.63261 34131 ft 400 kts 255°
2026-04-28 08:37 46.30774 9.55512 34133 ft 399 kts 258°
2026-04-28 08:38 46.29853 9.47639 34131 ft 399 kts 262°
2026-04-28 08:38 46.28955 9.39728 34125 ft 400 kts 262°
2026-04-28 08:38 46.28498 9.35746 34320 ft 400 kts 261°
2026-04-28 08:39 46.28041 9.31769 34525 ft 400 kts 262°
2026-04-28 08:39 46.27580 9.27787 34631 ft 402 kts 261°
2026-04-28 08:39 46.27118 9.23826 34748 ft 404 kts 262°
2026-04-28 08:39 46.26649 9.19808 34869 ft 406 kts 261°
2026-04-28 08:40 46.26180 9.15776 35017 ft 407 kts 261°
2026-04-28 08:40 46.25244 9.07698 35090 ft 411 kts 261°
2026-04-28 08:41 46.24290 8.99520 35082 ft 411 kts 261°
2026-04-28 08:41 46.23330 8.91414 35084 ft 412 kts 261°
2026-04-28 08:42 46.22361 8.83257 35084 ft 412 kts 261°
2026-04-28 08:42 46.21382 8.75072 35085 ft 413 kts 261°
2026-04-28 08:43 46.20399 8.66928 35085 ft 413 kts 261°
2026-04-28 08:43 46.19414 8.58810 35089 ft 413 kts 261°
2026-04-28 08:44 46.18415 8.50632 35094 ft 413 kts 261°
2026-04-28 08:44 46.17412 8.42441 35104 ft 414 kts 261°
2026-04-28 08:45 46.16415 8.34323 35106 ft 413 kts 261°
2026-04-28 08:45 46.15393 8.26107 35103 ft 414 kts 260°
2026-04-28 08:46 46.14380 8.17994 35107 ft 414 kts 261°
2026-04-28 08:46 46.13359 8.09804 35105 ft 414 kts 261°
2026-04-28 08:47 46.12327 8.01669 35108 ft 414 kts 260°
2026-04-28 08:47 46.11287 7.93523 35103 ft 414 kts 260°
2026-04-28 08:48 46.10242 7.85335 35108 ft 415 kts 260°
2026-04-28 08:48 46.09192 7.77201 35102 ft 415 kts 260°
2026-04-28 08:49 46.08128 7.69003 35107 ft 415 kts 260°
2026-04-28 08:49 46.07068 7.60831 35097 ft 415 kts 260°
2026-04-28 08:50 46.06004 7.52684 35096 ft 415 kts 260°
2026-04-28 08:50 46.04930 7.44566 35086 ft 415 kts 260°
2026-04-28 08:51 46.03843 7.36393 35089 ft 415 kts 260°
2026-04-28 08:51 46.02946 7.29612 35083 ft 415 kts 260°
2026-04-28 08:52 46.01675 7.20125 35085 ft 415 kts 260°
2026-04-28 08:52 46.00570 7.11955 35085 ft 415 kts 259°
2026-04-28 08:53 45.99651 7.05180 35085 ft 415 kts 259°
2026-04-28 08:53 45.98359 6.95694 35080 ft 415 kts 259°
2026-04-28 08:54 45.97244 6.87567 35080 ft 415 kts 259°
2026-04-28 08:54 45.96307 6.80768 35057 ft 414 kts 259°
2026-04-28 08:55 45.95178 6.72634 35072 ft 415 kts 259°
2026-04-28 08:55 45.94051 6.64540 35065 ft 415 kts 259°
2026-04-28 08:56 45.92912 6.56401 35064 ft 414 kts 259°
2026-04-28 08:56 45.91776 6.48320 35062 ft 415 kts 259°
2026-04-28 08:57 45.90621 6.40176 35055 ft 415 kts 259°
2026-04-28 08:57 45.89468 6.32098 35060 ft 415 kts 259°
2026-04-28 08:58 45.88306 6.23990 35058 ft 413 kts 259°
2026-04-28 08:58 45.87150 6.15946 35055 ft 413 kts 259°
2026-04-28 08:59 45.85976 6.07889 35058 ft 413 kts 256°
2026-04-28 08:59 45.83849 6.00215 35056 ft 416 kts 242°
2026-04-28 09:00 45.80994 5.93060 35043 ft 416 kts 242°
2026-04-28 09:00 45.78122 5.85870 35055 ft 417 kts 242°
2026-04-28 09:01 45.75245 5.78663 35053 ft 416 kts 242°
2026-04-28 09:01 45.72374 5.71478 35050 ft 416 kts 242°
2026-04-28 09:02 45.69705 5.64145 35050 ft 414 kts 251°
2026-04-28 09:02 45.68557 5.56182 35040 ft 412 kts 267°
2026-04-28 09:03 45.69133 5.48009 35042 ft 414 kts 279°
2026-04-28 09:03 45.70286 5.39956 35035 ft 414 kts 279°
2026-04-28 09:04 45.71412 5.31871 35029 ft 414 kts 279°
2026-04-28 09:04 45.72528 5.23751 35028 ft 415 kts 279°
2026-04-28 09:05 45.73534 5.15687 35029 ft 413 kts 273°
2026-04-28 09:05 45.73133 5.07512 35034 ft 411 kts 256°
2026-04-28 09:06 45.71021 4.99914 35028 ft 413 kts 243°
2026-04-28 09:06 45.68238 4.92753 35025 ft 413 kts 243°
2026-04-28 09:07 45.65477 4.85527 35027 ft 414 kts 244°
2026-04-28 09:07 45.62897 4.78209 35026 ft 414 kts 245°
2026-04-28 09:08 45.60334 4.70808 35026 ft 414 kts 245°
2026-04-28 09:08 45.57756 4.63492 35028 ft 413 kts 245°
2026-04-28 09:09 45.55146 4.56175 35028 ft 413 kts 244°
2026-04-28 09:09 45.52550 4.48925 35026 ft 412 kts 244°
2026-04-28 09:10 45.49937 4.41644 35031 ft 413 kts 244°
2026-04-28 09:10 45.47392 4.34284 35028 ft 413 kts 247°
2026-04-28 09:11 45.45133 4.26793 35041 ft 413 kts 248°
2026-04-28 09:11 45.42915 4.19253 35028 ft 412 kts 248°
2026-04-28 09:12 45.40633 4.11754 35030 ft 412 kts 247°
2026-04-28 09:12 45.38320 4.04331 35032 ft 412 kts 247°
2026-04-28 09:13 45.36001 3.96892 35034 ft 412 kts 247°
2026-04-28 09:13 45.33682 3.89434 35043 ft 412 kts 247°
2026-04-28 09:14 45.31370 3.82023 35258 ft 412 kts 247°
2026-04-28 09:14 45.30200 3.78288 35452 ft 412 kts 247°
2026-04-28 09:14 45.29033 3.74570 35628 ft 412 kts 247°
2026-04-28 09:14 45.27876 3.70885 35804 ft 412 kts 247°
2026-04-28 09:15 45.26705 3.67163 35979 ft 412 kts 247°
2026-04-28 09:15 45.24362 3.59719 36037 ft 412 kts 247°
2026-04-28 09:16 45.22017 3.52275 36035 ft 412 kts 247°
2026-04-28 09:16 45.19665 3.44843 36035 ft 413 kts 247°
2026-04-28 09:17 45.17316 3.37466 36045 ft 412 kts 247°
2026-04-28 09:17 45.14950 3.30056 36045 ft 412 kts 247°
2026-04-28 09:18 45.12589 3.22668 36027 ft 413 kts 247°
2026-04-28 09:18 45.10220 3.15274 36035 ft 413 kts 247°
2026-04-28 09:19 45.07836 3.07850 36044 ft 414 kts 247°
2026-04-28 09:19 45.05448 3.00429 36056 ft 413 kts 246°
2026-04-28 09:20 45.03073 2.93075 36065 ft 413 kts 246°
2026-04-28 09:20 45.00669 2.85680 36089 ft 412 kts 246°
2026-04-28 09:21 44.98253 2.78375 36215 ft 413 kts 246°
2026-04-28 09:21 44.97014 2.74670 35959 ft 418 kts 246°
2026-04-28 09:21 44.95811 2.70976 35534 ft 416 kts 247°
2026-04-28 09:21 44.94630 2.67270 35935 ft 410 kts 247°
2026-04-28 09:22 44.93464 2.63612 36066 ft 407 kts 246°
2026-04-28 09:22 44.91116 2.56365 36083 ft 403 kts 246°
2026-04-28 09:23 44.88773 2.49229 36088 ft 403 kts 246°
2026-04-28 09:23 44.86410 2.42054 36085 ft 403 kts 246°
2026-04-28 09:24 44.84047 2.34906 36086 ft 402 kts 246°
2026-04-28 09:24 44.81688 2.27777 36079 ft 402 kts 246°
2026-04-28 09:25 44.79333 2.20679 36073 ft 402 kts 246°
2026-04-28 09:25 44.76953 2.13551 36061 ft 402 kts 245°
2026-04-28 09:26 44.74561 2.06415 36054 ft 402 kts 245°
2026-04-28 09:26 44.72188 1.99305 36046 ft 402 kts 245°
2026-04-28 09:27 44.68614 1.88673 36043 ft 402 kts 245°
2026-04-28 09:27 44.66208 1.81536 36041 ft 403 kts 245°
2026-04-28 09:28 44.63817 1.74455 36042 ft 403 kts 245°
2026-04-28 09:28 44.61402 1.67330 36038 ft 403 kts 245°
2026-04-28 09:29 44.58997 1.60259 36019 ft 403 kts 245°
2026-04-28 09:29 44.56573 1.53146 36023 ft 404 kts 245°
2026-04-28 09:30 44.54140 1.46027 36029 ft 404 kts 245°
2026-04-28 09:30 44.51715 1.38942 36030 ft 404 kts 245°
2026-04-28 09:31 44.49285 1.31866 36034 ft 404 kts 245°
2026-04-28 09:31 44.46837 1.24759 36032 ft 404 kts 245°
2026-04-28 09:32 44.44385 1.17707 36032 ft 404 kts 244°
2026-04-28 09:32 44.41879 1.10644 36035 ft 404 kts 244°
2026-04-28 09:33 44.39354 1.03597 36016 ft 405 kts 244°
2026-04-28 09:33 44.36843 0.96585 36021 ft 406 kts 244°
2026-04-28 09:34 44.34319 0.89500 36022 ft 406 kts 244°
2026-04-28 09:34 44.31818 0.82475 36028 ft 406 kts 244°
2026-04-28 09:35 44.29290 0.75424 36044 ft 406 kts 244°
2026-04-28 09:35 44.26746 0.68358 36053 ft 406 kts 244°
2026-04-28 09:36 44.24216 0.61348 36058 ft 406 kts 244°
2026-04-28 09:36 44.21673 0.54305 36046 ft 406 kts 243°
2026-04-28 09:37 44.19125 0.47271 36043 ft 406 kts 243°
2026-04-28 09:37 44.16584 0.40282 36044 ft 407 kts 243°
2026-04-28 09:38 44.14017 0.33240 36043 ft 407 kts 243°
2026-04-28 09:38 44.11444 0.26203 36042 ft 407 kts 243°
2026-04-28 09:39 44.08881 0.19206 36043 ft 407 kts 243°
2026-04-28 09:39 44.06301 0.12179 36041 ft 407 kts 243°
2026-04-28 09:40 44.03730 0.05192 36045 ft 408 kts 243°
2026-04-28 09:40 44.01136 -0.01834 36030 ft 408 kts 243°
2026-04-28 09:41 43.98536 -0.08858 36030 ft 409 kts 243°
2026-04-28 09:41 43.95928 -0.15887 36029 ft 409 kts 243°
2026-04-28 09:42 43.93333 -0.22873 36029 ft 409 kts 243°
2026-04-28 09:42 43.90716 -0.29899 36026 ft 409 kts 243°
2026-04-28 09:43 43.88102 -0.36889 36027 ft 410 kts 243°
2026-04-28 09:43 43.85466 -0.43920 36036 ft 410 kts 242°
2026-04-28 09:44 43.82837 -0.50909 36020 ft 410 kts 242°
2026-04-28 09:44 43.80210 -0.57882 36022 ft 411 kts 242°
2026-04-28 09:45 43.77559 -0.64897 36027 ft 411 kts 242°
2026-04-28 09:45 43.75357 -0.70723 36028 ft 411 kts 242°
2026-04-28 09:46 43.72262 -0.78893 36037 ft 412 kts 242°
2026-04-28 09:46 43.70039 -0.84743 36021 ft 411 kts 242°
2026-04-28 09:47 43.67370 -0.91737 36025 ft 411 kts 242°
2026-04-28 09:47 43.64697 -0.98727 36018 ft 411 kts 242°
2026-04-28 09:48 43.62036 -1.05692 36013 ft 412 kts 242°
2026-04-28 09:48 43.59350 -1.12700 36027 ft 413 kts 242°
2026-04-28 09:49 43.56666 -1.19654 36038 ft 413 kts 242°
2026-04-28 09:49 43.53956 -1.26658 36041 ft 413 kts 242°
2026-04-28 09:50 43.51246 -1.33663 36044 ft 414 kts 242°
2026-04-28 09:50 43.48554 -1.40609 36051 ft 413 kts 242°
2026-04-28 09:51 43.45835 -1.47595 36050 ft 414 kts 241°
2026-04-28 09:51 43.43122 -1.54555 36049 ft 414 kts 241°
2026-04-28 09:52 43.40394 -1.61546 36040 ft 414 kts 241°
2026-04-28 09:52 43.37666 -1.68505 36038 ft 415 kts 241°
2026-04-28 09:53 43.34832 -1.75416 36047 ft 415 kts 236°
2026-04-28 09:53 43.31621 -1.82015 36046 ft 415 kts 236°
2026-04-28 09:54 43.28291 -1.88435 36018 ft 415 kts 233°
2026-04-28 09:54 43.24758 -1.94718 36026 ft 415 kts 232°
2026-04-28 09:55 43.21213 -2.00990 36030 ft 415 kts 232°
2026-04-28 09:55 43.17723 -2.07256 36020 ft 416 kts 233°
2026-04-28 09:56 43.14222 -2.13583 36018 ft 416 kts 233°
2026-04-28 09:56 43.10747 -2.19868 36017 ft 416 kts 233°
2026-04-28 09:57 43.07229 -2.26186 36018 ft 417 kts 232°
2026-04-28 09:57 43.03724 -2.32455 36016 ft 417 kts 232°
2026-04-28 09:58 43.00191 -2.38753 36015 ft 417 kts 232°
2026-04-28 09:58 42.96671 -2.45022 35996 ft 417 kts 232°
2026-04-28 09:59 42.93129 -2.51325 35998 ft 418 kts 232°
2026-04-28 09:59 42.89583 -2.57623 36001 ft 418 kts 232°
2026-04-28 10:00 42.86054 -2.63880 36050 ft 418 kts 232°
2026-04-28 10:00 42.82497 -2.70176 36060 ft 418 kts 232°
2026-04-28 10:01 42.78935 -2.76448 36063 ft 418 kts 232°
2026-04-28 10:01 42.75368 -2.82721 36011 ft 418 kts 232°
2026-04-28 10:02 42.71829 -2.88955 36009 ft 418 kts 232°
2026-04-28 10:02 42.68314 -2.95285 36012 ft 418 kts 233°
2026-04-28 10:03 42.64829 -3.01589 36010 ft 418 kts 232°
2026-04-28 10:03 42.61316 -3.07886 36014 ft 418 kts 232°
2026-04-28 10:04 42.57801 -3.14160 36013 ft 418 kts 232°
2026-04-28 10:04 42.54301 -3.20425 35998 ft 418 kts 232°
2026-04-28 10:05 42.50773 -3.26717 36010 ft 419 kts 232°
2026-04-28 10:05 42.47228 -3.33008 36019 ft 419 kts 232°
2026-04-28 10:06 42.43700 -3.39244 36037 ft 420 kts 232°
2026-04-28 10:06 42.40142 -3.45538 36056 ft 420 kts 232°
2026-04-28 10:07 42.36579 -3.51829 36062 ft 421 kts 232°
2026-04-28 10:07 42.33032 -3.58087 36022 ft 421 kts 232°
2026-04-28 10:08 42.29445 -3.64393 36022 ft 422 kts 232°
2026-04-28 10:08 42.25864 -3.70683 36019 ft 422 kts 232°
2026-04-28 10:09 42.22300 -3.76942 35991 ft 422 kts 232°
2026-04-28 10:09 42.18702 -3.83225 36005 ft 423 kts 232°
2026-04-28 10:10 42.15101 -3.89493 36007 ft 422 kts 232°
2026-04-28 10:10 42.11524 -3.95727 35994 ft 423 kts 232°
2026-04-28 10:11 42.07910 -4.01999 35993 ft 423 kts 231°
2026-04-28 10:11 42.04307 -4.08235 35993 ft 424 kts 232°
2026-04-28 10:12 42.01418 -4.15141 36000 ft 425 kts 246°
2026-04-28 10:12 41.99126 -4.22443 36001 ft 425 kts 245°
2026-04-28 10:13 41.96797 -4.29771 36007 ft 426 kts 245°
2026-04-28 10:13 41.94469 -4.37046 36003 ft 426 kts 245°
2026-04-28 10:14 41.92123 -4.44365 36012 ft 426 kts 245°
2026-04-28 10:14 41.89796 -4.51633 36002 ft 426 kts 245°
2026-04-28 10:15 41.87453 -4.58936 36012 ft 426 kts 245°
2026-04-28 10:15 41.85100 -4.66250 36012 ft 426 kts 245°
2026-04-28 10:16 41.82742 -4.73564 36007 ft 426 kts 245°
2026-04-28 10:16 41.80386 -4.80825 36005 ft 427 kts 245°
2026-04-28 10:17 41.78014 -4.88131 36006 ft 427 kts 245°
2026-04-28 10:17 41.75659 -4.95394 36013 ft 426 kts 245°
2026-04-28 10:18 41.73285 -5.02685 36007 ft 426 kts 245°
2026-04-28 10:18 41.70917 -5.09921 36001 ft 426 kts 245°
2026-04-28 10:19 41.68527 -5.17194 35996 ft 426 kts 245°
2026-04-28 10:19 41.66130 -5.24468 35992 ft 426 kts 245°
2026-04-28 10:20 41.63739 -5.31700 35979 ft 427 kts 245°
2026-04-28 10:20 41.61346 -5.38932 35983 ft 427 kts 245°
2026-04-28 10:21 41.58931 -5.46226 35981 ft 428 kts 245°
2026-04-28 10:21 41.56521 -5.53490 35980 ft 428 kts 244°
2026-04-28 10:22 41.54109 -5.60718 35981 ft 428 kts 244°
2026-04-28 10:22 41.51081 -5.67515 35979 ft 425 kts 232°
2026-04-28 10:23 41.47579 -5.73838 35968 ft 427 kts 233°
2026-04-28 10:23 41.44032 -5.80262 35944 ft 430 kts 233°
2026-04-28 10:24 41.40486 -5.86691 35950 ft 433 kts 233°
2026-04-28 10:24 41.36917 -5.93127 35950 ft 435 kts 233°
2026-04-28 10:25 41.33312 -5.99623 35950 ft 435 kts 233°
2026-04-28 10:25 41.29724 -6.06077 35953 ft 436 kts 233°
2026-04-28 10:26 41.26100 -6.12586 35958 ft 437 kts 233°
2026-04-28 10:26 41.22499 -6.19027 35959 ft 437 kts 232°
2026-04-28 10:27 41.18855 -6.25520 35956 ft 437 kts 232°
2026-04-28 10:27 41.15240 -6.31955 35947 ft 437 kts 232°
2026-04-28 10:28 41.11617 -6.38397 35950 ft 437 kts 232°
2026-04-28 10:29 41.06142 -6.48091 35961 ft 437 kts 232°
2026-04-28 10:29 41.02514 -6.54512 35956 ft 437 kts 232°
2026-04-28 10:30 40.98862 -6.60968 35951 ft 436 kts 232°
2026-04-28 10:30 40.95234 -6.67349 35952 ft 436 kts 232°
2026-04-28 10:31 40.91589 -6.73741 35939 ft 436 kts 232°
2026-04-28 10:31 40.87934 -6.80148 35939 ft 436 kts 232°
2026-04-28 10:32 40.84275 -6.86559 35929 ft 438 kts 232°
2026-04-28 10:32 40.80614 -6.92957 35912 ft 439 kts 232°
2026-04-28 10:33 40.76902 -6.99419 35924 ft 441 kts 232°
2026-04-28 10:33 40.73200 -7.05853 35926 ft 441 kts 232°
2026-04-28 10:34 40.69480 -7.12307 35931 ft 442 kts 232°
2026-04-28 10:34 40.65769 -7.18730 35920 ft 442 kts 232°
2026-04-28 10:35 40.62028 -7.25200 35927 ft 443 kts 232°
2026-04-28 10:35 40.58296 -7.31653 35928 ft 443 kts 232°
2026-04-28 10:36 40.54565 -7.38067 35923 ft 443 kts 232°
2026-04-28 10:36 40.50837 -7.44459 35916 ft 443 kts 232°
2026-04-28 10:37 40.47076 -7.50896 35920 ft 443 kts 232°
2026-04-28 10:37 40.43347 -7.57283 35920 ft 443 kts 232°
2026-04-28 10:38 40.39584 -7.63706 35934 ft 442 kts 231°
2026-04-28 10:38 40.35819 -7.70106 35914 ft 442 kts 231°
2026-04-28 10:39 40.32073 -7.76475 35912 ft 443 kts 231°
2026-04-28 10:39 40.28304 -7.82871 35910 ft 443 kts 231°
2026-04-28 10:40 40.24546 -7.89240 35916 ft 443 kts 231°
2026-04-28 10:40 40.20787 -7.95603 35908 ft 444 kts 231°
2026-04-28 10:41 40.16992 -8.02002 35909 ft 444 kts 231°
2026-04-28 10:41 40.13197 -8.08385 35907 ft 444 kts 231°
2026-04-28 10:42 40.09430 -8.14713 35908 ft 444 kts 231°
2026-04-28 10:42 40.05624 -8.21072 35913 ft 444 kts 231°
2026-04-28 10:43 40.02812 -8.26670 35902 ft 445 kts 244°
2026-04-28 10:43 40.01254 -8.34460 35906 ft 449 kts 264°
2026-04-28 10:44 40.01269 -8.42625 35902 ft 447 kts 257°
2026-04-28 10:44 40.00296 -8.46438 35893 ft 442 kts 241°
2026-04-28 10:44 39.98595 -8.49769 35890 ft 440 kts 227°
2026-04-28 10:44 39.96296 -8.52383 35882 ft 438 kts 212°
2026-04-28 10:45 39.93594 -8.54098 35874 ft 439 kts 201°
2026-04-28 10:45 39.87850 -8.56853 35565 ft 440 kts 200°
2026-04-28 10:45 39.84958 -8.58218 35315 ft 441 kts 200°
2026-04-28 10:46 39.82071 -8.59579 35072 ft 441 kts 200°
2026-04-28 10:46 39.79215 -8.60929 34831 ft 441 kts 201°
2026-04-28 10:46 39.76324 -8.62302 34588 ft 440 kts 201°
2026-04-28 10:46 39.73441 -8.63677 34351 ft 440 kts 201°
2026-04-28 10:47 39.70565 -8.65052 34104 ft 439 kts 201°
2026-04-28 10:47 39.67735 -8.66406 33872 ft 439 kts 201°
2026-04-28 10:47 39.64858 -8.67779 33595 ft 438 kts 201°
2026-04-28 10:47 39.61975 -8.69148 32969 ft 442 kts 201°
2026-04-28 10:48 39.59105 -8.70505 31995 ft 444 kts 201°
2026-04-28 10:48 39.56184 -8.71884 31046 ft 446 kts 200°
2026-04-28 10:48 39.53256 -8.73269 30216 ft 446 kts 200°
2026-04-28 10:48 39.50337 -8.74653 29617 ft 445 kts 200°
2026-04-28 10:49 39.47425 -8.76031 29218 ft 446 kts 200°
2026-04-28 10:49 39.44529 -8.77397 28952 ft 448 kts 200°
2026-04-28 10:49 39.41622 -8.78893 28668 ft 449 kts 207°
2026-04-28 10:49 39.38999 -8.81111 28394 ft 451 kts 219°
2026-04-28 10:50 39.36817 -8.83992 27993 ft 454 kts 227°
2026-04-28 10:50 39.34728 -8.87063 27310 ft 456 kts 227°
2026-04-28 10:50 39.32625 -8.90166 26670 ft 459 kts 227°
2026-04-28 10:50 39.30517 -8.93278 26008 ft 462 kts 227°
2026-04-28 10:51 39.28412 -8.96378 25361 ft 465 kts 227°
2026-04-28 10:51 39.26263 -8.99530 24694 ft 468 kts 227°
2026-04-28 10:51 39.24099 -9.02689 24019 ft 471 kts 227°
2026-04-28 10:51 39.21919 -9.05869 23307 ft 473 kts 227°
2026-04-28 10:52 39.19735 -9.09056 22607 ft 471 kts 227°
2026-04-28 10:52 39.17601 -9.12169 21938 ft 466 kts 227°
2026-04-28 10:52 39.15455 -9.15294 21266 ft 463 kts 227°
2026-04-28 10:52 39.13331 -9.18385 20613 ft 459 kts 227°
2026-04-28 10:53 39.11214 -9.21463 19954 ft 456 kts 227°
2026-04-28 10:53 39.09128 -9.24493 19433 ft 447 kts 227°
2026-04-28 10:53 39.07108 -9.27427 19310 ft 428 kts 227°
2026-04-28 10:53 39.05190 -9.30214 19190 ft 410 kts 227°
2026-04-28 10:54 39.03335 -9.32907 19067 ft 394 kts 227°
2026-04-28 10:54 39.01545 -9.35498 18948 ft 379 kts 227°
2026-04-28 10:54 38.99827 -9.37982 18831 ft 366 kts 227°
2026-04-28 10:54 38.98140 -9.40340 18710 ft 349 kts 220°
2026-04-28 10:55 38.96215 -9.42037 18512 ft 326 kts 204°
2026-04-28 10:55 38.94108 -9.42974 17962 ft 317 kts 195°
2026-04-28 10:55 38.92018 -9.43728 17334 ft 314 kts 195°
2026-04-28 10:55 38.89924 -9.44474 16673 ft 311 kts 195°
2026-04-28 10:56 38.87845 -9.45213 16038 ft 308 kts 195°
2026-04-28 10:56 38.85783 -9.45948 15429 ft 306 kts 195°
2026-04-28 10:56 38.83740 -9.46678 14866 ft 303 kts 195°
2026-04-28 10:56 38.81733 -9.47399 14349 ft 298 kts 196°
2026-04-28 10:57 38.79749 -9.48114 13767 ft 296 kts 196°
2026-04-28 10:57 38.77790 -9.48818 13139 ft 294 kts 196°
2026-04-28 10:57 38.75826 -9.49522 12503 ft 292 kts 195°
2026-04-28 10:57 38.73877 -9.50222 11886 ft 289 kts 195°
2026-04-28 10:58 38.71947 -9.50914 11303 ft 286 kts 195°
2026-04-28 10:58 38.70034 -9.51598 10698 ft 284 kts 195°
2026-04-28 10:58 38.68132 -9.52280 10090 ft 282 kts 195°
2026-04-28 10:58 38.66260 -9.52951 9438 ft 282 kts 195°
2026-04-28 10:59 38.64368 -9.53581 8795 ft 279 kts 188°
2026-04-28 10:59 38.62450 -9.53505 8148 ft 277 kts 166°
2026-04-28 10:59 38.60722 -9.52484 7514 ft 275 kts 142°
2026-04-28 10:59 38.59475 -9.50666 7035 ft 274 kts 118°
2026-04-28 11:00 38.58886 -9.48334 6922 ft 279 kts 95°
2026-04-28 11:00 38.58867 -9.45856 6834 ft 277 kts 89°
2026-04-28 11:00 38.58904 -9.43437 6229 ft 274 kts 88°
2026-04-28 11:00 38.58946 -9.41012 5561 ft 272 kts 88°
2026-04-28 11:01 38.58987 -9.38594 4906 ft 271 kts 88°
2026-04-28 11:01 38.59029 -9.36208 4519 ft 264 kts 88°
2026-04-28 11:01 38.59070 -9.33911 4392 ft 253 kts 88°
2026-04-28 11:01 38.59106 -9.31718 4247 ft 242 kts 88°
2026-04-28 11:02 38.59141 -9.29582 4078 ft 239 kts 88°
2026-04-28 11:02 38.59177 -9.27459 4022 ft 239 kts 87°
2026-04-28 11:02 38.59509 -9.25384 3913 ft 238 kts 66°
2026-04-28 11:02 38.60385 -9.23607 3720 ft 237 kts 45°
2026-04-28 11:03 38.61679 -9.22375 3464 ft 234 kts 24°
2026-04-28 11:03 38.63178 -9.21566 3177 ft 234 kts 21°
2026-04-28 11:03 38.64682 -9.20771 2867 ft 234 kts 21°
2026-04-28 11:03 38.66186 -9.19971 2560 ft 234 kts 21°
2026-04-28 11:04 38.67677 -9.19177 2221 ft 228 kts 22°
2026-04-28 11:04 38.69118 -9.18408 1925 ft 220 kts 22°
2026-04-28 11:04 38.70468 -9.17688 1660 ft 199 kts 22°
2026-04-28 11:04 38.71687 -9.17038 1391 ft 182 kts 22°
2026-04-28 11:05 38.72814 -9.16436 1156 ft 172 kts 22°
2026-04-28 11:05 38.73851 -9.15883 970 ft 162 kts 22°
2026-04-28 11:05 38.74845 -9.15351 759 ft 149 kts 22°
2026-04-28 11:05 38.75784 -9.14852 554 ft 144 kts 21°
2026-04-28 11:06 38.76687 -9.14371 370 ft 141 kts 22°
2026-04-28 11:06 38.77512 -9.13927 364 ft 113 kts 23°
2026-04-28 11:06 38.78091 -9.13616 366 ft 71 kts 23°
2026-04-28 11:06 38.78234 -9.13522 366 ft 2 kts 68°
2026-04-28 11:07 38.78237 -9.13505 366 ft 2 kts 79°
2026-04-28 11:07 38.78235 -9.13481 365 ft 4 kts 109°
2026-04-28 11:07 38.78208 -9.13455 366 ft 5 kts 174°
2026-04-28 11:07 38.78171 -9.13454 363 ft 6 kts 176°
2026-04-28 11:08 38.78129 -9.13446 362 ft 7 kts 166°
2026-04-28 11:08 38.78067 -9.13429 361 ft 11 kts 168°
2026-04-28 11:08 38.77988 -9.13439 363 ft 12 kts 205°
2026-04-28 11:08 38.77917 -9.13480 361 ft 11 kts 203°